Wind_Speed
21 21 21 20 19 19 19 20 20 21 20 19 19 20 21 21 21 20 20 20 20 20 20 20 21 21 21 21 20 20 20 21 21 21 22 23 24 25 25 25 25 25 25
22 22 21 21 20 20 20 21 21 21 22 21 21 21 22 21 21 22 22 22 22 22 22 22 22 22 21 22 21 21 21 21 22 22 22 23 24 25 26 25 25 25 25
23 23 22 22 22 22 22 22 23 23 24 23 22 23 23 23 23 23 23 22 23 23 22 22 22 22 22 22 22 23 22 23 23 23 23 24 24 25 25 25 25 25 25
24 23 23 24 24 23 23 24 24 25 24 24 24 25 24 24 24 24 24 23 23 24 24 24 24 23 23 23 24 24 24 24 24 24 25 26 26 26 26 26 27 27 27
25 24 25 25 25 25 25 26 26 26 26 26 26 26 26 25 25 25 25 25 25 25 25 24 24 24 23 23 24 24 24 25 25 26 26 26 27 27 27 28 28 29 29
25 25 25 26 26 26 27 27 27 27 27 27 27 28 27 26 26 26 26 26 25 26 25 25 25 25 23 23 25 26 26 26 27 27 27 27 28 28 28 29 29 29 29
26 26 26 27 27 28 28 28 27 27 27 28 27 27 25 25 25 26 25 25 25 24 24 24 24 23 23 24 25 26 26 27 28 28 29 29 29 29 29 29 30 31 31
26 26 27 27 28 28 29 28 28 28 28 28 28 26 25 25 26 25 25 25 25 24 24 24 24 25 25 25 25 25 26 26 27 28 29 28 29 29 30 30 30 31 31
26 26 27 28 27 27 27 27 27 28 28 27 27 26 27 27 26 25 25 25 25 25 25 25 25 25 25 25 25 25 25 25 27 28 28 29 29 30 30 30 30 30 30
25 25 26 27 27 26 25 26 26 26 27 27 26 26 26 26 26 26 26 25 25 25 25 25 25 25 24 24 25 25 25 25 25 26 27 28 29 29 29 30 30 30 30
24 25 25 25 25 25 25 25 25 25 25 26 25 25 25 25 25 26 26 25 25 25 25 25 25 25 25 25 25 25 25 25 25 26 26 27 28 28 28 29 29 29 29
24 25 24 24 25 24 24 24 24 25 24 24 24 24 24 25 25 26 26 26 25 25 26 26 27 27 27 26 26 25 25 25 25 26 26 26 26 26 27 28 28 28 29
24 24 24 25 24 24 24 24 24 24 24 24 23 23 24 24 25 25 25 25 25 26 26 27 27 27 27 27 26 26 26 26 26 26 26 26 26 27 28 28 28 29 28
24 24 24 24 25 24 24 24 24 24 23 23 23 23 23 24 24 24 25 26 26 26 26 26 25 25 25 25 25 26 26 26 26 27 27 27 27 28 28 29 29 29 29
24 24 24 24 24 24 24 24 23 23 23 23 22 21 22 22 23 23 24 25 25 25 25 25 25 24 24 25 26 26 27 28 28 28 28 28 28 28 28 28 29 29 29
24 23 23 23 23 23 23 23 22 22 22 22 21 21 22 22 23 23 23 23 23 24 24 24 25 25 25 26 26 27 27 28 28 28 28 28 28 28 28 28 29 29 29
24 24 24 23 22 22 22 22 22 22 22 22 21 21 21 22 22 23 23 23 23 24 24 24 25 25 26 26 27 27 27 28 28 28 28 28 28 28 28 28 29 29 29
23 23 23 23 23 22 22 22 22 22 21 21 21 21 22 22 23 22 22 23 24 24 25 25 25 25 25 26 26 27 27 27 27 28 28 28 28 28 28 28 28 29 29
22 23 23 22 23 22 22 22 22 21 21 22 22 21 22 22 23 23 23 24 25 25 24 24 24 25 25 26 27 27 27 27 28 28 28 28 28 28 28 28 29 28 29
22 22 22 22 22 23 22 22 22 22 22 22 22 22 22 22 22 22 23 23 23 23 23 24 24 25 26 27 27 27 27 27 28 27 27 27 27 28 28 28 28 29 30
22 22 22 21 21 21 21 22 22 22 22 22 22 22 22 23 23 22 22 22 22 22 23 24 25 26 26 27 27 27 27 27 26 26 26 26 27 28 28 29 29 29 29
22 22 22 22 21 21 21 21 21 22 21 21 21 21 22 22 22 22 22 22 22 22 22 23 24 25 26 26 26 26 25 25 25 26 26 26 27 27 28 28 28 28 28
22 21 21 21 21 20 20 20 20 21 20 20 20 20 20 20 21 21 21 22 22 22 23 23 24 25 26 26 25 24 24 25 25 25 26 27 27 28 28 28 28 28 28
21 21 21 21 21 20 20 20 20 20 21 21 20 20 21 20 20 21 21 22 22 23 23 23 24 25 25 25 25 25 25 26 26 26 27 27 28 28 27 27 27 27 28
21 22 21 21 21 21 21 20 20 21 21 21 21 21 22 22 22 22 22 22 23 23 23 23 24 24 24 24 24 25 25 25 25 26 26 27 27 27 27 27 27 28 28
21 21 21 21 21 21 21 21 21 21 20 21 22 23 23 23 23 23 22 22 22 23 23 23 24 24 24 24 25 25 25 25 26 26 26 26 26 26 27 27 28 28 28
Wind_Direction
275 274 274 273 273 275 277 277 278 278 275 276 276 279 279 278 276 275 274 274 275 274 273 273 275 275 271 269 270 271 271 269 268 266 267 266 266 269 270 269 268 268 269
275 273 273 274 274 275 275 275 275 277 277 277 277 279 279 277 276 275 275 275 274 273 272 273 274 274 273 270 270 271 271 270 269 268 268 267 267 268 270 271 270 270 271
275 272 272 273 273 274 275 275 273 276 276 279 279 278 277 275 274 274 274 276 275 274 271 272 273 273 272 270 269 269 269 270 270 270 269 268 268 269 268 269 271 271 271
274 272 272 272 273 274 274 275 274 274 275 277 276 276 274 272 272 272 272 274 276 275 274 271 272 273 272 270 269 269 269 269 270 272 271 271 270 269 268 269 270 271 273
274 272 273 273 273 273 273 274 273 273 274 276 275 274 273 273 271 271 273 274 274 275 275 272 271 272 272 271 271 271 270 271 271 272 272 272 271 270 269 270 270 271 272
273 274 274 274 273 273 274 274 275 274 276 277 277 273 272 270 270 271 272 273 274 273 273 273 271 270 271 274 273 272 270 270 271 272 272 272 272 272 271 271 272 272 272
273 273 274 275 274 274 274 274 274 275 276 277 276 274 271 269 268 269 270 272 271 271 271 271 272 272 273 275 275 274 272 272 272 272 272 273 273 272 272 273 273 273 273
272 272 273 275 274 273 273 274 275 275 275 276 275 274 271 269 268 268 268 268 269 269 270 271 272 272 273 276 277 278 276 275 275 274 273 272 273 273 273 273 274 273 273
272 273 274 274 274 273 272 273 275 275 274 274 274 272 271 269 269 269 269 267 268 269 270 271 272 274 275 276 277 279 278 278 277 276 275 274 274 274 273 275 274 273 273
273 274 273 272 272 275 275 273 274 275 275 273 272 273 271 268 267 268 267 268 268 268 270 270 272 274 275 275 276 278 279 279 280 279 278 277 276 276 276 277 275 274 273
276 277 275 273 274 276 277 276 275 276 276 274 272 273 271 269 268 269 269 269 269 269 270 270 271 272 273 274 276 278 279 279 279 280 279 279 279 278 279 280 279 277 275
277 279 275 274 275 277 276 276 276 276 277 275 275 273 272 271 271 270 270 270 271 271 271 271 272 272 272 275 276 276 278 279 280 280 280 280 280 281 282 282 282 281 277
277 278 275 275 275 277 277 277 277 276 277 277 274 274 274 273 273 273 272 272 273 274 274 274 274 273 274 275 275 276 278 278 280 280 281 281 281 281 281 282 283 282 280
276 276 277 275 276 275 276 276 275 275 275 275 275 274 274 274 274 274 274 274 274 275 274 275 274 274 275 275 276 277 278 277 279 280 280 281 282 282 280 279 280 280 280
275 274 274 276 277 274 273 274 273 274 275 276 276 275 274 274 275 276 275 275 274 272 273 274 275 275 275 276 277 278 277 278 279 280 280 281 282 282 281 280 281 281 280
272 272 273 274 276 275 274 273 273 274 274 275 275 275 275 276 276 276 275 276 275 275 274 273 275 277 277 277 278 279 280 281 281 280 280 281 283 284 284 283 283 282 281
273 272 273 273 272 276 275 274 273 273 273 275 276 276 276 277 277 277 277 277 276 276 276 276 276 276 277 278 279 280 280 280 280 280 280 281 283 284 285 285 284 283 282
274 272 273 273 273 275 276 276 274 273 274 276 277 276 277 278 279 278 277 276 276 277 276 276 276 277 279 279 281 282 281 281 281 281 280 281 283 284 285 286 286 285 284
274 273 273 273 273 275 276 276 274 273 275 277 276 275 277 277 279 280 279 278 279 279 278 276 275 278 279 281 282 282 283 283 283 283 282 282 283 285 286 287 288 287 286
277 276 275 274 274 273 272 273 272 272 273 276 276 277 278 279 281 282 282 282 280 278 277 277 277 279 281 282 283 284 285 285 286 286 285 284 284 285 286 288 289 289 289
280 279 278 277 277 274 272 273 273 273 274 275 276 276 277 278 281 282 282 282 281 279 278 277 278 279 281 283 285 286 286 287 288 287 287 287 287 286 286 287 289 289 289
279 279 278 278 278 277 275 274 273 273 276 277 277 276 275 277 280 281 280 279 280 280 279 279 280 281 283 285 286 286 287 288 289 288 287 288 290 289 289 288 287 288 289
278 278 277 276 276 277 276 274 273 273 275 277 278 278 277 279 281 282 282 282 282 281 281 281 282 283 285 286 286 286 289 291 290 291 290 290 291 291 289 288 287 287 287
276 276 275 275 274 274 274 272 271 271 273 275 275 275 278 281 282 284 284 283 283 283 283 283 284 284 285 286 286 287 288 288 288 288 289 290 291 291 290 289 288 288 289
275 274 273 274 273 273 272 271 272 274 274 274 275 276 277 279 281 284 285 284 282 282 283 283 283 285 286 287 287 288 289 289 290 289 289 289 289 289 290 290 289 290 290
274 273 272 273 273 272 272 272 273 275 276 276 277 277 278 279 282 284 286 285 284 284 284 284 284 285 286 287 288 288 290 291 292 291 291 290 289 289 291 291 291 291 291
Height
5820 5820 5819 5819 5819 5819 5819 5819 5818 5818 5817 5817 5817 5816 5816 5816 5815 5815 5815 5815 5814 5814 5813 5813 5813 5813 5812 5812 5812 5812 5811 5812 5812 5812 5812 5812 5812 5812 5812 5812 5813 5813 5813
5814 5814 5813 5813 5814 5813 5813 5813 5812 5812 5812 5811 5811 5811 5810 5810 5810 5809 5809 5809 5808 5808 5808 5807 5807 5807 5806 5806 5806 5806 5805 5805 5806 5806 5806 5806 5806 5806 5806 5805 5805 5805 5806
5807 5807 5807 5807 5807 5807 5807 5806 5806 5806 5805 5804 5804 5804 5804 5804 5804 5803 5803 5803 5802 5801 5801 5801 5801 5800 5800 5799 5799 5799 5799 5799 5799 5799 5799 5799 5799 5799 5799 5799 5798 5798 5798
5800 5800 5801 5801 5800 5800 5800 5800 5799 5799 5798 5798 5798 5797 5796 5797 5797 5796 5796 5796 5796 5795 5795 5794 5794 5794 5793 5793 5793 5792 5792 5792 5792 5792 5792 5792 5792 5792 5792 5791 5791 5791 5791
5793 5793 5793 5793 5793 5793 5793 5793 5792 5791 5791 5791 5790 5790 5789 5789 5789 5789 5789 5789 5789 5789 5788 5788 5787 5787 5786 5786 5785 5785 5785 5785 5785 5785 5785 5785 5784 5784 5784 5784 5784 5783 5783
5787 5786 5786 5786 5786 5786 5785 5785 5784 5784 5783 5783 5782 5782 5781 5782 5782 5782 5782 5782 5782 5781 5781 5781 5780 5780 5779 5779 5778 5778 5778 5778 5778 5778 5777 5777 5776 5776 5776 5775 5775 5775 5775
5779 5779 5779 5778 5778 5778 5777 5777 5776 5775 5775 5775 5774 5774 5774 5774 5774 5774 5774 5774 5774 5774 5774 5773 5773 5773 5772 5772 5771 5770 5770 5770 5770 5770 5769 5768 5768 5767 5767 5767 5766 5766 5766
5771 5771 5771 5771 5770 5770 5769 5768 5768 5767 5767 5767 5767 5766 5766 5766 5766 5767 5767 5767 5767 5767 5766 5766 5766 5766 5765 5765 5764 5763 5763 5762 5762 5761 5760 5760 5759 5758 5758 5758 5757 5757 5756
5764 5764 5763 5763 5762 5761 5761 5760 5759 5759 5759 5759 5759 5758 5758 5758 5759 5759 5759 5759 5760 5759 5759 5759 5759 5758 5758 5757 5757 5756 5755 5754 5753 5752 5752 5751 5750 5749 5749 5749 5748 5748 5747
5756 5756 5756 5755 5755 5754 5753 5752 5751 5751 5750 5750 5750 5750 5750 5750 5751 5751 5751 5752 5752 5752 5752 5751 5751 5751 5750 5750 5749 5749 5748 5746 5745 5744 5743 5742 5741 5740 5740 5739 5739 5738 5738
5749 5748 5748 5747 5747 5746 5745 5744 5744 5743 5743 5743 5742 5742 5742 5742 5743 5743 5744 5744 5744 5744 5744 5744 5744 5743 5743 5742 5742 5741 5740 5739 5737 5736 5735 5734 5733 5732 5731 5730 5729 5729 5728
5742 5741 5741 5740 5740 5739 5738 5737 5736 5736 5736 5735 5735 5735 5735 5735 5736 5736 5736 5736 5736 5737 5736 5736 5736 5735 5735 5734 5734 5733 5732 5731 5730 5729 5728 5727 5726 5725 5723 5722 5721 5720 5719
5735 5734 5733 5733 5732 5732 5731 5730 5729 5729 5729 5728 5728 5728 5728 5729 5729 5728 5728 5729 5729 5729 5729 5728 5728 5727 5727 5726 5726 5725 5724 5724 5723 5722 5721 5719 5718 5717 5716 5714 5713 5712 5711
5727 5727 5726 5726 5725 5725 5724 5723 5722 5722 5721 5721 5721 5721 5721 5721 5721 5721 5721 5721 5721 5721 5721 5720 5719 5719 5719 5718 5718 5717 5716 5716 5715 5714 5713 5711 5710 5709 5708 5706 5705 5704 5703
5720 5720 5719 5718 5718 5717 5717 5716 5715 5715 5714 5714 5714 5714 5714 5714 5714 5714 5713 5713 5713 5713 5713 5712 5712 5711 5711 5711 5710 5709 5709 5708 5707 5706 5705 5703 5702 5701 5699 5698 5697 5695 5694
5713 5713 5712 5711 5711 5710 5709 5709 5708 5708 5707 5707 5707 5707 5707 5707 5707 5706 5706 5706 5706 5705 5705 5705 5704 5704 5704 5703 5703 5702 5701 5700 5699 5698 5696 5695 5694 5693 5691 5689 5688 5687 5685
5706 5706 5705 5705 5704 5703 5703 5702 5702 5701 5700 5700 5700 5700 5700 5700 5700 5700 5699 5699 5698 5698 5697 5697 5697 5696 5696 5695 5694 5693 5692 5691 5690 5689 5688 5687 5686 5684 5683 5681 5679 5678 5676
5698 5698 5698 5698 5697 5697 5696 5695 5695 5694 5694 5694 5694 5694 5694 5693 5693 5693 5692 5692 5691 5690 5690 5689 5689 5689 5688 5687 5686 5685 5684 5683 5681 5680 5679 5678 5677 5676 5674 5673 5671 5669 5668
5691 5691 5691 5690 5690 5690 5689 5689 5688 5688 5688 5688 5688 5687 5687 5687 5686 5686 5685 5684 5683 5683 5682 5682 5682 5681 5681 5680 5679 5677 5676 5675 5673 5672 5670 5669 5668 5667 5666 5664 5662 5660 5659
5684 5684 5683 5683 5683 5683 5682 5682 5681 5681 5681 5681 5681 5681 5680 5680 5679 5678 5677 5676 5675 5675 5674 5674 5674 5673 5673 5672 5671 5669 5668 5666 5665 5664 5662 5661 5660 5658 5657 5655 5654 5652 5650
5677 5677 5676 5676 5675 5675 5675 5675 5675 5674 5674 5674 5674 5674 5673 5673 5672 5672 5671 5670 5668 5668 5667 5667 5666 5666 5665 5664 5662 5661 5660 5658 5657 5656 5654 5653 5652 5650 5649 5647 5645 5644 5641
5670 5670 5669 5669 5669 5668 5668 5667 5667 5667 5667 5667 5667 5667 5666 5666 5665 5665 5664 5663 5662 5661 5660 5660 5659 5658 5657 5656 5654 5653 5652 5650 5649 5648 5647 5645 5644 5642 5640 5639 5637 5635 5633
5663 5663 5662 5662 5662 5661 5661 5661 5661 5661 5661 5661 5660 5660 5660 5659 5658 5658 5657 5656 5655 5655 5654 5653 5652 5651 5649 5648 5647 5645 5644 5643 5642 5641 5639 5638 5636 5634 5632 5630 5628 5627 5625
5655 5655 5655 5655 5655 5655 5655 5655 5655 5655 5655 5654 5654 5654 5653 5653 5652 5651 5650 5649 5649 5648 5647 5646 5645 5643 5642 5641 5639 5638 5637 5635 5634 5633 5631 5630 5628 5626 5624 5622 5620 5618 5616
5648 5648 5648 5648 5648 5648 5648 5648 5648 5648 5648 5648 5647 5647 5647 5646 5645 5644 5643 5642 5641 5641 5639 5638 5637 5636 5635 5633 5632 5630 5629 5627 5626 5624 5623 5621 5619 5617 5616 5614 5612 5610 5608
5641 5641 5641 5641 5641 5641 5641 5641 5641 5641 5641 5640 5640 5640 5639 5639 5638 5637 5636 5635 5634 5633 5632 5631 5630 5628 5627 5626 5624 5623 5621 5619 5618 5616 5614 5613 5611 5609 5607 5605 5603 5601 5599